Mumbai, India

12:11 PM IST on February 25, 2018 (GMT +0530)
Chhatrapati Shivaji International

Weather History for VABB - November, 2011

Change the Weather History Date:

Saturday, November 19, 2011

  Actual Average Record
Temperature  
Mean Temperature 80 °F -  
Max Temperature 95 °F 89 °F 100 °F (2004)
Min Temperature 64 °F 69 °F 58 °F (2012)
Cooling Degree Days 14    
Growing Degree Days 30 (Base 50)    
Moisture  
Dew Point 59 °F    
Average Humidity 45    
Maximum Humidity 83    
Minimum Humidity 17    
Precipitation  
Precipitation 0.00 in - - ()
Sea Level Pressure  
Sea Level Pressure 29.88 in    
Wind  
Wind Speed 3 mph ()    
Max Wind Speed 10 mph    
Max Gust Speed -    
Visibility 1.9 miles    
Events      
Averages and records for this station are not official NWS values.
T = Trace of Precipitation, MM = Missing Value Source: Averaged Metar Reports

Daily Weather History Graph

Daily Weather History Graph

Search for Another Location

Airport or City:

Trip Planner

Search our weather history database for the weather conditions in past years. The results will help you decide how hot, cold, wet, or windy it might be!

Date:

Astronomy

Nov. 19, 2011 Rise Set
Actual Time 6:47 AM IST 5:59 PM IST
Civil Twilight 6:24 AM IST 6:22 PM IST
Nautical Twilight 5:58 AM IST 6:49 PM IST
Astronomical Twilight 5:31 AM IST 7:15 PM IST
Moon 12:33 AM IST (11/19) 1:13 PM IST (11/19)
Length of Visible Light 11h 57m
Length of Day
11h 11m
Last Quarter, 43% of the Moon is Illuminated
Nov 19
Last Quarter
Nov 25
New
Dec 2
First Quarter
Dec 10
Full
Dec 18
Last Quarter

Hourly Weather History & Observations

Time (IST) Temp. Heat Index Dew Point Humidity Pressure Visibility Wind Dir Wind Speed Gust Speed Precip Events Conditions
12:10 AM 78.8 °F - 59.0 °F 51% 29.89 in 1.7 mi Calm Calm - N/A   Smoke
12:40 AM 80.6 °F 81.1 °F 59.0 °F 48% 29.89 in 1.8 mi Calm Calm - N/A   Smoke
1:10 AM 78.8 °F - 62.6 °F 57% 29.89 in 1.6 mi Calm Calm - N/A   Smoke
2:10 AM 78.8 °F - 59.0 °F 51% 29.86 in - Calm Calm - N/A   Smoke
2:30 AM 68 °F - 62 °F 75% 29.86 in 1 mi Calm Calm - -   Haze
2:40 AM 78.8 °F - 60.8 °F 54% 29.86 in - ESE 4.6 mph - N/A   Smoke
3:10 AM 77.0 °F - 59.0 °F 54% 29.86 in - Calm Calm - N/A   Smoke
3:40 AM 77.0 °F - 60.8 °F 57% 29.86 in 2.2 mi Calm Calm - N/A   Smoke
4:10 AM 75.2 °F - 59.0 °F 57% 29.86 in 2.2 mi Calm Calm - N/A   Smoke
4:40 AM 77.0 °F - 60.8 °F 57% 29.86 in 2.2 mi ESE 3.5 mph - N/A   Smoke
5:10 AM 77.0 °F - 59.0 °F 54% 29.86 in 2.2 mi Calm Calm - N/A   Smoke
5:30 AM 66 °F - 62 °F 83% 29.88 in 1 mi Calm Calm - -   Haze
6:10 AM 75.2 °F - 59.0 °F 57% 29.89 in 1.9 mi Calm Calm - N/A   Smoke
6:40 AM 77.0 °F - 59.0 °F 54% 29.89 in 1.7 mi Calm Calm - N/A   Smoke
7:10 AM 75.2 °F - 59.0 °F 57% 29.92 in 1.7 mi East 4.6 mph - N/A   Smoke
7:40 AM 77.0 °F - 57.2 °F 50% 29.92 in 1.7 mi ENE 6.9 mph - N/A   Smoke
8:10 AM 78.8 °F - 57.2 °F 47% 29.95 in 1.6 mi East 3.5 mph - N/A   Smoke
8:30 AM 75 °F - 59 °F 47% 29.94 in 1 mi East 4.6 mph - -   Smoke
8:40 AM 80.6 °F 80.5 °F 55.4 °F 42% 29.95 in 1.6 mi NE 6.9 mph - N/A   Smoke
9:40 AM 84.2 °F 83.0 °F 55.4 °F 37% 29.98 in 1.9 mi ENE 6.9 mph - N/A   Smoke
10:40 AM 87.8 °F 86.1 °F 55.4 °F 33% 29.95 in 1.9 mi East 6.9 mph - N/A   Smoke
11:10 AM 89.6 °F 87.7 °F 55.4 °F 31% 29.95 in 1.9 mi East 6.9 mph - N/A   Smoke
11:30 AM 92 °F - 58 °F 22% 29.94 in 1 mi ENE 5.8 mph - -   Smoke
11:40 AM 91.4 °F 89.4 °F 55.4 °F 29% 29.95 in 1.9 mi ESE 5.8 mph - N/A   Smoke
12:10 PM 91.4 °F 89.1 °F 53.6 °F 28% 29.92 in 1.9 mi ESE 5.8 mph - N/A   Smoke
12:40 PM 93.2 °F 90.8 °F 53.6 °F 26% 29.89 in 2.5 mi East 5.8 mph - N/A   Smoke
1:10 PM 93.2 °F - 51.8 °F 24% 29.86 in 2.8 mi ENE 5.8 mph - N/A   Smoke
1:40 PM 93.2 °F - 51.8 °F 24% 29.86 in 2.8 mi NNE 6.9 mph - N/A   Smoke
2:10 PM 93.2 °F - 51.8 °F 24% 29.86 in 2.8 mi SSE 5.8 mph - N/A   Smoke
2:30 PM 95 °F - 55 °F 17% 29.84 in 1 mi North 3.5 mph - -   Smoke
2:40 PM 93.2 °F - 50.0 °F 23% 29.83 in 2.8 mi NNE 6.9 mph - N/A   Smoke
3:40 PM 93.2 °F 94.9 °F 64.4 °F 38% 29.83 in 3.1 mi SSW 5.8 mph - N/A   Smoke
4:10 PM 91.4 °F 92.1 °F 62.6 °F 38% 29.83 in 3.1 mi WNW 6.9 mph - N/A   Smoke
4:40 PM 89.6 °F 90.1 °F 62.6 °F 40% 29.83 in 3.1 mi WNW 10.4 mph - N/A   Smoke
5:10 PM 87.8 °F 87.6 °F 60.8 °F 40% 29.83 in 3.1 mi NW 9.2 mph - N/A   Smoke
5:30 PM 87 °F - 64 °F 37% 29.83 in 1 mi North 4.6 mph - -   Smoke
5:40 PM 87.8 °F 90.4 °F 66.2 °F 49% 29.83 in 2.5 mi NW 8.1 mph - N/A   Smoke
6:10 PM 86.0 °F 87.3 °F 64.4 °F 48% 29.83 in 2.5 mi SE 9.2 mph - N/A   Smoke
6:40 PM 86.0 °F 86.6 °F 62.6 °F 45% 29.83 in 2.2 mi NNW 5.8 mph - N/A   Smoke
7:10 PM 86.0 °F 86.6 °F 62.6 °F 45% 29.86 in - NW 8.1 mph - N/A   Smoke
7:40 PM 86.0 °F 86.6 °F 62.6 °F 45% 29.86 in - West 6.9 mph - N/A   Smoke
8:30 PM 82 °F - 64 °F 44% 29.87 in 1 mi North 3.5 mph - -   Smoke
9:10 PM 84.2 °F 83.8 °F 59.0 °F 42% 29.89 in - North 6.9 mph - N/A   Smoke
9:40 PM 84.2 °F 83.8 °F 59.0 °F 42% 29.89 in 2.2 mi Calm Calm - N/A   Smoke
10:40 PM 80.6 °F 81.5 °F 60.8 °F 51% 29.89 in 1.4 mi SSE 5.8 mph - N/A   Smoke
11:10 PM 82.4 °F 82.9 °F 60.8 °F 48% 29.89 in 1.7 mi ESE 5.8 mph - N/A   Smoke
11:30 PM 72 °F - 65 °F 74% 29.90 in 1 mi Calm Calm - -   Haze
11:40 PM 80.6 °F 81.5 °F 60.8 °F 51% 29.89 in 1.6 mi Calm Calm - N/A   Smoke